Weather History for KBUF - August, 2013

Change the Weather History Date:

Wednesday, August 7, 2013

  Actual Average Record
Temperature  
Mean Temperature 74 °F 71 °F  
Max Temperature 82 °F 79 °F 93 °F (1947)
Min Temperature 66 °F 62 °F 47 °F (1948)
Degree Days  
Heating Degree Days 0 0  
Month to date heating degree days 3 0  
Since 1 June heating degree days 73 73  
Since 1 July heating degree days 9 9  
Cooling Degree Days 9 6  
Month to date cooling degree days 23 42  
Year to date cooling degree days 433 368  
Since 1 June cooling degree days 362 342  
Growing Degree Days 24 (Base 50)    
Moisture  
Dew Point 63 °F    
Average Humidity 69    
Maximum Humidity 84    
Minimum Humidity 54    
Precipitation  
Precipitation 0.00 in 0.11 in 3.88 in (1963)
Month to date precipitation 0.90 0.77  
Year to date precipitation 25.02 22.67  
Snow  
Snow 0.00 in 0.00 in 0.00 in ()
Month to date snowfall 0.0 0.0  
Since 1 June snowfall 0.0 0.0  
Since 1 July snowfall 0.0 0.0  
Snow Depth 0.00 in    
Sea Level Pressure  
Sea Level Pressure 29.92 in    
Wind  
Wind Speed 10 mph (South)    
Max Wind Speed 26 mph    
Max Gust Speed 31 mph    
Visibility 10 miles    
Events Rain , Thunderstorm    
T = Trace of Precipitation, MM = Missing Value Source: NWS Daily Summary

Daily Weather History Graph

Daily Weather History Graph

Search for Another Location

Airport or City:

Trip Planner

Search our weather history database for the weather conditions in past years. The results will help you decide how hot, cold, wet, or windy it might be!

Date:

Astronomy

Aug. 07, 2013 Rise Set
Actual Time 6:12 AM EDT 8:28 PM EDT
Civil Twilight 5:41 AM EDT 8:59 PM EDT
Nautical Twilight 5:02 AM EDT 9:38 PM EDT
Astronomical Twilight 4:18 AM EDT 10:21 PM EDT
Moon 7:02 AM EDT (8/7) 8:30 PM EDT (8/7)
Length of Visible Light 15h 18m
Length of Day
14h 15m
New Moon, 1% of the Moon is Illuminated
Aug 7
New Moon
Aug 14
First Quarter
Aug 20
Full
Aug 28
Last Quarter
Sep 5
New

Hourly Weather History & Observations

Time (EDT) Temp. Heat Index Dew Point Humidity Pressure Visibility Wind Dir Wind Speed Gust Speed Precip Events Conditions
12:54 AM 69.1 °F - 57.9 °F 68% 29.97 in 10.0 mi South 5.8 mph - N/A   Mostly Cloudy
1:54 AM 70.0 °F - 59.0 °F 68% 29.97 in 10.0 mi SSE 8.1 mph - N/A   Mostly Cloudy
2:54 AM 69.1 °F - 59.0 °F 70% 29.97 in 10.0 mi South 6.9 mph - N/A   Mostly Cloudy
3:54 AM 68.0 °F - 59.0 °F 73% 29.96 in 10.0 mi South 10.4 mph - N/A   Mostly Cloudy
4:54 AM 66.9 °F - 59.0 °F 76% 29.96 in 10.0 mi South 10.4 mph - N/A   Mostly Cloudy
5:54 AM 66.0 °F - 59.0 °F 78% 29.96 in 10.0 mi SSE 8.1 mph - N/A   Mostly Cloudy
6:54 AM 66.0 °F - 59.0 °F 78% 29.96 in 10.0 mi SSE 8.1 mph - N/A   Mostly Cloudy
7:54 AM 68.0 °F - 60.1 °F 76% 29.96 in 10.0 mi South 10.4 mph - N/A   Mostly Cloudy
8:54 AM 71.1 °F - 61.0 °F 70% 29.96 in 10.0 mi South 10.4 mph - N/A   Mostly Cloudy
9:54 AM 75.0 °F - 62.1 °F 64% 29.94 in 10.0 mi South 13.8 mph - N/A   Mostly Cloudy
10:54 AM 77.0 °F - 64.0 °F 64% 29.94 in 10.0 mi South 12.7 mph 19.6 mph N/A   Mostly Cloudy
11:54 AM 78.1 °F - 63.0 °F 60% 29.93 in 10.0 mi South 15.0 mph - N/A   Overcast
12:54 PM 81.0 °F 82.2 °F 63.0 °F 54% 29.91 in 10.0 mi SSW 12.7 mph 19.6 mph N/A   Overcast
1:54 PM 81.0 °F 82.7 °F 64.9 °F 58% 29.90 in 10.0 mi South 13.8 mph 23.0 mph N/A   Overcast
2:54 PM 80.1 °F 81.7 °F 64.0 °F 58% 29.89 in 10.0 mi SSW 12.7 mph 24.2 mph N/A   Overcast
3:54 PM 80.1 °F 81.7 °F 64.0 °F 58% 29.88 in 10.0 mi South 12.7 mph - N/A   Overcast
4:24 PM 80.6 °F 82.3 °F 64.4 °F 58% 29.88 in 10.0 mi SSW 11.5 mph - N/A Thunderstorm Thunderstorm
4:54 PM 77.0 °F - 64.0 °F 64% 29.88 in 10.0 mi South 10.4 mph - N/A Thunderstorm Thunderstorm
5:04 PM 77.0 °F - 64.4 °F 65% 29.88 in 10.0 mi SSW 9.2 mph - N/A   Mostly Cloudy
5:54 PM 79.0 °F - 66.9 °F 66% 29.86 in 10.0 mi SW 11.5 mph - N/A   Mostly Cloudy
6:54 PM 79.0 °F - 66.9 °F 66% 29.86 in 10.0 mi SW 12.7 mph 18.4 mph N/A   Scattered Clouds
7:54 PM 77.0 °F - 66.9 °F 71% 29.86 in 10.0 mi SW 9.2 mph - N/A   Scattered Clouds
8:54 PM 73.9 °F - 68.0 °F 82% 29.88 in 10.0 mi SW 10.4 mph - N/A   Scattered Clouds
9:54 PM 73.0 °F - 68.0 °F 84% 29.89 in 10.0 mi SW 10.4 mph - N/A   Scattered Clouds
10:15 PM 73.4 °F - 68.0 °F 83% 29.91 in 10.0 mi SW 10.4 mph - N/A   Scattered Clouds
10:54 PM 73.0 °F - 64.9 °F 76% 29.91 in 10.0 mi SW 9.2 mph - N/A   Scattered Clouds
11:54 PM 72.0 °F - 63.0 °F 73% 29.91 in 10.0 mi SSW 5.8 mph - N/A   Scattered Clouds